Погода в Пазарджике

Болгария     42°11′16″N   24°19′48″E
темп.,
°C
ветер,
м/с
пор.,
м/с
влажн.,
%
обл.,
%
осадки,
мм/ч
давл.,
гПа
погр.,
м
7 мая, пт
пт700:00+13зюз01755 0.0 101510
03:00+12зсз01811 0.0 101510
06:00+10сз008445 0.0 101410
09:00+15всв2173100 0.0 1015308
12:00+20в3258100 0.0 1013716
15:00+23в3351100 0.0 10111028
18:00+21юв2265100 0.0 1009105
21:00+17з1169100 0.0 100911
8 мая, сб
сб800:00+15з2268100 0.0 101018
03:00+13з336974 0.0 101030
06:00+13з511705 0.0 1012305
09:00+14сз71164100 0.0 1016662
12:00+15сз7961100 0.0 1016775
15:00+19сз574622 0.0 10151606
18:00+17сз355589 0.0 1017237
21:00+13св117282 0.0 102032
9 мая, вс
вс900:00+12сз226727 0.0 102225
03:00+7всв229451 0.0 102530
06:00+8св128985 0.0 1026184
09:00+10св118457 0.1 1027308
12:00+15в44545 0.0 10261230
15:00+18в55435 0.0 10251501
18:00+17вюв55490 0.0 10241264
21:00+11всв22754 0.0 102618
10 мая, пн
пн1000:00+8в36825 0.0 1028175
03:00+6ссз008928 0.0 102828
06:00+5сз119032 0.0 102875
09:00+9всв227433 0.0 1027436
12:00+15в33550 0.0 1026956
15:00+18вюв45430 0.0 10241168
18:00+17вюв45470 0.0 10231041
21:00+10в24760 0.0 102567
11 мая, вт
вт1100:00+7св22850 0.0 102522
03:00+5ссз11880 0.0 102510
06:00+4сз11900 0.0 102410
09:00+10всв11710 0.0 1023382
12:00+15в33520 0.0 1021817
15:00+18вюв44410 0.0 10191110
18:00+18вюв34430 0.0 1018973
21:00+11ююв11695 0.0 101810